SCP
-0 -0 -0 -0 0 0 0 0 0 -0 0 -0 -0 -0 0 0 0 -0 0 0 0 0 0 0 0 0 0 0 0 0 0 0 0 0 0 0 0 0 0 0 -0 -0 -0
-0 -0 -0 0 0 0 0 0 0 0 0 -0 -0 -0 0 0 0 -0 -0 -0 -0 0 0 -0 -0 0 0 0 0 0 0 0 0 0 0 0 0 0 0 0 -0 -0 -0
-0 -0 0 0 0 0 0 0 0 0 0 0 -0 -0 0 0 0 0 0 0 0 0 -0 -0 -0 -0 -0 -0 0 -0 -0 -0 -0 0 0 -0 0 -0 -0 -0 -0 -0 -0
-0 -0 0 0 0 0 0 0 0 0 0 0 0 0 0 0 0 0 0 0 0 0 0 0 0 0 -0 -0 -0 -0 -0 -0 -0 -0 0 0 -0 -0 -0 -0 -0 -0 -0
-0 -0 -0 0 0 0 0 0 0 0 0 0 0 0 0 0 0 0 0 0 0 0 0 0 0 -0 -0 -0 -0 -0 -0 -0 -0 -0 0 0 0 -0 -0 0 0 -0 0
-0 -0 -0 0 0 0 0 0 0 0 0 0 0 0 0 0 0 0 0 0 0 0 0 0 0 0 -0 -0 -0 -0 -0 -0 -0 -0 0 0 0 -0 0 0 0 0 0
-0 -0 -0 0 0 0 0 0 0 0 1 0 0 0 0 0 0 0 0 0 -0 -0 -0 -0 0 0 -0 -0 -0 -0 -0 -0 -0 0 0 0 0 0 0 0 0 0 0
-0 0 0 0 0 0 0 0 0 0 0 0 0 0 0 0 0 0 0 0 0 0 0 0 0 0 0 0 0 -0 -0 -0 -0 0 0 0 0 0 0 0 0 0 0
0 0 0 0 0 0 0 0 0 0 0 0 0 0 0 0 0 0 0 0 0 -0 0 0 0 0 0 0 0 0 0 -0 -0 -0 -0 0 -0 0 0 0 0 0 0
0 0 0 0 -0 -0 0 0 0 0 -0 -0 -0 -0 -0 -0 -0 0 0 -0 0 0 0 0 0 0 0 0 0 0 0 0 0 0 0 -0 0 0 0 0 0 0 0
-0 0 0 0 0 -0 0 0 0 -0 -0 -0 -0 -0 -0 -0 -0 -0 -0 -0 0 0 0 0 0 0 0 0 0 0 0 0 0 -0 0 0 0 0 0 0 0 0 0
0 0 -0 -0 0 0 0 0 0 0 -0 0 -0 0 0 -0 -0 0 0 0 0 0 1 0 0 0 0 0 0 0 1 0 -0 -0 -0 0 1 1 0 0 0 0 0
0 0 -0 -0 0 0 1 0 -0 0 0 0 0 1 0 0 0 0 0 1 1 1 1 0 1 0 0 0 -0 -0 1 0 0 0 0 0 0 1 0 0 0 0 0
-0 0 -0 -0 -0 0 1 -0 -0 1 1 1 1 1 1 1 1 0 0 1 1 1 1 1 0 0 0 0 0 -0 0 0 0 0 0 0 0 0 1 1 1 1 1
-0 -0 -0 -0 2 3 2 2 3 2 1 1 1 0 0 1 0 0 0 0 0 0 0 1 0 0 0 0 -0 0 -0 -0 0 0 1 1 1 1 1 1 1 1 1
3 3 3 4 3 3 3 4 1 2 1 1 1 0 1 1 1 1 0 0 0 0 0 0 0 0 0 1 0 0 0 0 0 1 1 1 1 0 1 1 1 1 1
1 3 2 2 2 3 1 1 2 2 1 1 1 0 0 0 1 1 1 1 0 0 0 0 0 0 0 0 0 0 0 0 0 0 0 1 1 0 1 1 1 1 0
2 2 2 2 1 2 2 2 3 1 3 2 1 1 0 0 0 1 0 0 0 0 0 0 0 0 0 0 0 -0 -0 0 0 0 0 0 1 1 1 1 1 0 1
1 2 1 2 2 2 1 3 2 1 2 1 1 1 0 0 0 1 0 1 1 0 0 0 0 0 0 0 0 0 -0 -0 -0 0 0 0 0 0 0 0 0 0 1
0 0 0 1 1 1 1 1 1 1 1 1 1 1 0 1 0 1 2 1 1 1 1 0 0 0 0 0 0 0 0 0 0 0 0 0 0 0 0 2 1 -0 0
0 0 1 1 1 2 2 2 3 3 1 0 1 0 0 1 1 1 1 2 2 1 1 0 0 0 0 0 0 0 0 0 0 0 0 1 1 1 1 0 1 2 1
0 0 1 1 1 1 1 1 3 3 1 2 2 2 1 1 1 1 2 1 2 1 1 0 0 0 0 0 0 0 0 0 0 0 0 0 0 0 0 0 0 -0 0
0 0 0 0 0 1 1 1 1 1 1 1 2 1 1 1 1 2 2 1 1 0 0 1 1 1 0 0 0 0 0 0 0 0 0 1 1 0 0 0 0 0 0
0 0 0 0 0 0 0 0 1 1 1 1 1 1 1 0 0 0 1 1 1 1 1 1 0 1 1 0 0 0 0 0 0 0 0 1 0 0 0 0 0 0 0
0 0 0 0 1 1 1 1 0 0 0 0 0 1 2 1 1 1 1 1 1 2 1 1 1 1 1 0 0 0 0 0 0 1 0 0 1 1 0 0 0 0 0
0 0 0 1 1 1 1 0 0 1 0 0 1 1 0 0 0 1 2 2 2 2 2 1 1 1 1 1 0 0 0 0 0 0 0 0 0 1 0 0 0 0 0
Wind_Speed_500mb
17 14 13 15 17 14 24 25 25 21 22 26 27 24 21 21 22 22 23 24 24 25 26 25 24 25 28 32 35 37 44 48 42 45 50 47 43 41 40 38 32 35 35
24 16 15 15 15 18 30 25 25 21 20 22 24 21 18 17 18 18 18 18 19 20 21 21 22 23 24 26 29 33 39 41 42 43 35 47 42 38 34 30 32 34 34
11 20 16 14 16 17 30 28 25 22 20 19 20 18 15 14 14 14 13 13 14 15 15 16 17 18 19 19 21 24 30 36 32 27 28 25 37 35 30 29 29 31 33
16 15 18 14 16 17 26 26 25 23 19 17 17 17 14 10 10 10 9 8 9 10 9 10 11 12 13 15 16 18 21 24 23 21 16 16 25 29 28 25 26 26 28
20 19 16 18 19 19 22 25 24 25 19 15 14 15 15 12 8 6 5 3 2 3 4 6 8 10 11 12 13 14 15 15 18 17 24 10 25 20 23 20 22 23 25
29 15 2 13 17 22 22 22 22 23 20 17 14 14 14 12 10 7 5 3 4 4 6 7 8 10 11 12 13 12 11 9 3 5 9 8 25 16 23 20 19 18 18
26 5 8 12 17 22 25 24 23 23 22 20 18 17 16 15 12 10 9 9 11 11 12 13 14 14 14 14 15 16 14 11 8 8 16 13 23 23 24 22 17 15 14
15 5 6 12 16 17 20 24 24 24 23 22 20 19 18 16 14 13 13 15 17 19 19 19 20 21 20 20 20 19 19 19 16 11 8 26 29 29 31 25 21 17 14
20 12 10 12 15 19 17 18 20 21 21 21 20 18 18 17 17 17 19 18 20 24 24 25 26 27 26 27 26 25 24 24 23 20 15 17 32 30 30 33 30 24 20
17 11 9 14 21 22 19 17 19 21 21 19 21 20 20 20 18 17 20 20 22 27 29 30 30 31 31 32 32 29 27 27 30 24 3 7 36 36 33 40 36 30 28
19 15 16 14 18 19 20 21 20 19 21 23 22 21 19 16 12 9 12 15 18 27 33 34 34 34 34 36 35 31 19 23 22 8 10 32 27 36 42 46 45 36 31
18 14 3 28 12 22 14 14 16 17 13 13 15 14 10 3 4 20 30 32 18 23 28 31 36 32 35 41 41 21 33 27 15 9 25 39 34 35 40 45 48 41 34
14 22 29 22 32 26 24 13 12 9 1 5 3 12 7 9 16 24 28 32 26 26 31 34 28 31 44 35 54 49 40 29 27 26 26 14 17 24 36 43 47 44 38
32 28 12 13 22 11 22 10 24 14 12 8 18 23 12 5 16 16 16 20 33 35 37 42 38 35 37 50 36 67 24 44 43 40 32 46 40 43 45 40 43 42 41
14 12 20 39 21 15 16 33 31 26 16 25 17 21 26 23 28 27 24 23 20 20 24 28 41 33 30 44 23 50 41 39 48 38 20 33 30 40 35 42 44 39 37
21 2 8 13 12 13 20 20 28 27 32 21 30 31 27 25 23 19 4 13 12 21 28 27 26 35 36 38 41 43 30 44 31 36 48 36 34 27 42 38 51 41 37
20 1 18 19 10 4 13 3 9 9 10 22 30 25 23 21 18 10 12 12 26 23 12 17 21 18 24 29 37 33 33 28 41 34 44 43 48 42 28 39 41 42 39
25 29 23 3 18 8 11 9 7 18 11 14 9 15 15 13 14 14 16 23 16 13 8 15 23 25 21 23 30 34 38 42 43 38 31 31 32 42 26 36 43 32 33
15 10 17 11 6 14 12 5 15 17 11 15 10 12 17 10 13 8 13 13 9 10 12 17 21 27 32 31 23 31 34 42 43 39 44 41 42 36 43 32 50 24 27
25 22 18 14 21 11 12 13 6 17 16 12 8 18 13 7 12 9 3 20 17 8 21 24 32 30 31 30 29 34 33 27 33 36 42 51 41 27 39 34 38 39 23
26 26 20 18 16 11 16 15 17 14 21 14 18 26 13 11 14 21 11 16 7 14 21 35 43 42 37 26 29 36 34 35 32 39 46 36 24 23 25 28 20 23 29
25 22 20 22 25 13 15 9 18 23 20 13 2 8 21 25 21 15 22 23 23 29 37 32 44 48 47 30 32 37 42 37 25 24 17 24 33 35 31 25 33 26 37
21 20 22 24 27 25 33 24 24 27 30 31 29 26 18 26 20 19 26 47 56 60 59 50 34 48 55 49 31 28 21 14 41 35 16 20 25 25 30 34 46 35 31
17 19 18 18 21 27 40 39 33 36 34 34 37 44 46 53 33 42 55 51 58 59 53 54 49 40 47 44 33 28 34 37 36 34 38 27 28 23 11 12 19 28 34
28 29 35 29 26 35 34 43 47 45 44 45 43 46 46 54 44 51 50 47 47 54 53 45 50 49 45 48 41 32 35 31 29 33 45 33 24 20 22 24 29 32 33
43 46 28 39 40 36 47 45 50 46 49 50 51 54 60 58 47 40 31 39 45 47 51 53 52 56 52 55 55 40 35 26 31 31 30 29 24 21 30 32 34 36 34
Wind_Direction_500mb
172 146 145 151 160 164 170 158 152 146 141 129 124 121 107 97 94 93 90 86 82 76 71 69 64 61 60 60 62 62 61 62 64 62 61 61 64 68 69 67 59 66 69
157 161 144 150 160 155 162 162 157 151 148 141 134 129 117 105 97 96 91 85 81 76 69 65 61 58 56 56 56 59 61 64 62 59 55 51 53 59 65 70 67 66 65
132 146 137 144 152 161 164 163 162 159 151 149 142 143 136 122 109 104 98 92 87 78 70 61 55 53 51 50 50 53 61 65 60 62 63 27 26 45 55 60 62 64 64
113 138 137 138 147 160 173 169 167 172 161 161 158 154 152 148 134 120 104 90 79 70 57 46 42 38 39 38 37 45 58 73 70 59 81 103 340 19 37 48 56 54 60
130 161 146 152 155 162 177 176 174 182 180 170 174 173 173 173 168 145 136 123 78 56 29 12 8 6 8 10 14 21 40 77 92 57 40 137 310 331 7 28 45 48 47
160 176 159 170 166 168 172 184 186 190 193 190 194 196 193 193 190 196 218 255 285 305 310 312 319 328 333 338 341 347 1 21 15 33 2 252 302 304 334 353 16 30 38
128 109 225 187 180 178 178 182 192 199 204 208 208 208 208 208 210 223 248 271 282 289 293 292 294 299 303 309 314 320 323 322 322 86 36 245 290 309 312 323 340 355 10
119 235 165 176 181 189 182 186 193 204 210 217 220 217 215 222 233 250 262 275 282 286 289 287 287 287 291 294 298 302 305 307 304 270 174 277 280 295 303 311 312 315 328
149 193 146 161 167 177 179 183 191 198 208 216 219 219 225 233 247 261 271 278 284 283 284 285 285 285 287 289 291 293 296 299 299 295 220 284 269 283 295 308 306 296 297
155 161 142 154 163 170 172 174 182 186 194 202 214 217 228 239 251 268 278 283 286 284 284 285 284 286 288 288 287 289 301 316 304 291 23 206 272 270 286 301 305 293 285
187 159 170 168 146 159 176 177 181 185 197 201 208 219 228 248 259 285 293 292 310 306 297 290 285 284 286 287 292 292 289 321 313 312 289 264 258 276 288 295 297 294 286
210 201 226 174 165 166 191 184 187 189 194 209 220 224 232 166 338 295 295 299 313 310 304 300 306 299 295 298 302 296 289 296 300 302 279 257 263 276 289 295 296 288 286
275 300 32 158 183 167 181 210 181 115 51 36 196 277 201 261 258 255 272 289 296 296 310 302 288 291 282 272 279 295 287 290 276 279 297 306 309 308 305 306 300 284 282
302 268 154 207 187 201 209 165 216 189 167 225 230 233 230 227 276 244 267 277 302 300 307 282 310 323 289 308 294 314 273 274 275 275 283 294 292 303 305 301 316 294 281
120 36 46 155 180 192 132 167 177 190 162 209 230 226 217 211 229 240 250 265 263 284 313 331 326 339 289 319 347 316 279 275 288 279 286 284 270 282 302 295 306 307 293
90 314 264 54 223 246 213 202 219 194 197 194 205 232 221 220 243 230 246 281 287 267 267 283 309 307 313 318 316 291 295 295 277 303 287 278 281 289 296 279 298 295 293
30 126 331 345 293 192 301 242 122 237 211 210 237 239 241 247 259 222 222 238 246 266 293 321 307 313 320 292 286 300 303 288 300 280 296 282 284 294 287 287 300 299 294
24 9 359 22 355 296 221 165 199 223 202 214 238 263 245 274 256 233 227 246 280 291 282 280 282 288 294 311 302 300 301 301 312 311 305 285 286 276 277 298 298 282 298
37 11 22 16 296 316 320 226 232 238 188 229 210 251 259 227 257 171 292 296 325 326 321 291 322 324 319 316 314 318 305 297 291 290 287 285 283 290 314 299 298 281 306
35 34 21 4 337 336 328 313 255 270 248 242 237 242 266 196 293 229 147 316 310 337 300 312 321 327 323 326 315 303 299 298 302 297 302 295 300 292 294 293 299 294 293
35 31 33 18 355 22 346 303 306 282 272 257 241 249 242 234 233 273 257 238 290 308 299 322 320 323 320 328 313 313 303 304 289 300 289 286 275 276 287 285 301 282 286
19 18 358 355 338 325 304 291 325 305 287 302 232 248 258 298 291 276 263 278 297 305 303 305 304 306 304 316 302 296 304 303 296 303 334 267 292 288 281 325 333 321 301
4 358 350 352 346 355 330 320 293 278 273 281 274 272 248 235 228 253 292 301 300 303 301 295 290 296 299 297 297 293 302 298 311 283 302 341 312 318 295 273 312 317 316
326 322 336 335 340 336 327 323 321 315 308 302 295 293 281 290 293 288 287 278 294 295 291 281 267 280 285 277 290 272 268 278 284 302 302 323 322 327 314 317 324 315 315
306 307 308 305 315 313 298 310 306 300 295 284 277 274 280 278 285 283 277 286 284 280 277 278 275 264 265 268 274 277 275 269 270 279 290 301 311 296 288 299 316 324 325
310 311 314 323 316 309 313 309 302 297 299 297 293 288 282 289 292 285 279 279 273 279 269 262 264 264 260 265 271 251 251 259 275 282 298 301 303 307 290 299 315 317 329
Wind_Speed_850mb
17 14 13 15 17 14 24 25 25 21 22 26 27 24 21 21 22 22 23 24 24 25 26 25 24 25 28 32 35 37 44 48 42 45 50 47 43 41 40 38 32 35 35
24 16 15 15 15 18 30 25 25 21 20 22 24 21 18 17 18 18 18 18 19 20 21 21 22 23 24 26 29 33 39 41 42 43 35 47 42 38 34 30 32 34 34
11 20 16 14 16 17 30 28 25 22 20 19 20 18 15 14 14 14 13 13 14 15 15 16 17 18 19 19 21 24 30 36 32 27 28 25 37 35 30 29 29 31 33
16 15 18 14 16 17 26 26 25 23 19 17 17 17 14 10 10 10 9 8 9 10 9 10 11 12 13 15 16 18 21 24 23 21 16 16 25 29 28 25 26 26 28
20 19 16 18 19 19 22 25 24 25 19 15 14 15 15 12 8 6 5 3 2 3 4 6 8 10 11 12 13 14 15 15 18 17 24 10 25 20 23 20 22 23 25
29 15 2 13 17 22 22 22 22 23 20 17 14 14 14 12 10 7 5 3 4 4 6 7 8 10 11 12 13 12 11 9 3 5 9 8 25 16 23 20 19 18 18
26 5 8 12 17 22 25 24 23 23 22 20 18 17 16 15 12 10 9 9 11 11 12 13 14 14 14 14 15 16 14 11 8 8 16 13 23 23 24 22 17 15 14
15 5 6 12 16 17 20 24 24 24 23 22 20 19 18 16 14 13 13 15 17 19 19 19 20 21 20 20 20 19 19 19 16 11 8 26 29 29 31 25 21 17 14
20 12 10 12 15 19 17 18 20 21 21 21 20 18 18 17 17 17 19 18 20 24 24 25 26 27 26 27 26 25 24 24 23 20 15 17 32 30 30 33 30 24 20
17 11 9 14 21 22 19 17 19 21 21 19 21 20 20 20 18 17 20 20 22 27 29 30 30 31 31 32 32 29 27 27 30 24 3 7 36 36 33 40 36 30 28
19 15 16 14 18 19 20 21 20 19 21 23 22 21 19 16 12 9 12 15 18 27 33 34 34 34 34 36 35 31 19 23 22 8 10 32 27 36 42 46 45 36 31
18 14 3 28 12 22 14 14 16 17 13 13 15 14 10 3 4 20 30 32 18 23 28 31 36 32 35 41 41 21 33 27 15 9 25 39 34 35 40 45 48 41 34
14 22 29 22 32 26 24 13 12 9 1 5 3 12 7 9 16 24 28 32 26 26 31 34 28 31 44 35 54 49 40 29 27 26 26 14 17 24 36 43 47 44 38
32 28 12 13 22 11 22 10 24 14 12 8 18 23 12 5 16 16 16 20 33 35 37 42 38 35 37 50 36 67 24 44 43 40 32 46 40 43 45 40 43 42 41
14 12 20 39 21 15 16 33 31 26 16 25 17 21 26 23 28 27 24 23 20 20 24 28 41 33 30 44 23 50 41 39 48 38 20 33 30 40 35 42 44 39 37
21 2 8 13 12 13 20 20 28 27 32 21 30 31 27 25 23 19 4 13 12 21 28 27 26 35 36 38 41 43 30 44 31 36 48 36 34 27 42 38 51 41 37
20 1 18 19 10 4 13 3 9 9 10 22 30 25 23 21 18 10 12 12 26 23 12 17 21 18 24 29 37 33 33 28 41 34 44 43 48 42 28 39 41 42 39
25 29 23 3 18 8 11 9 7 18 11 14 9 15 15 13 14 14 16 23 16 13 8 15 23 25 21 23 30 34 38 42 43 38 31 31 32 42 26 36 43 32 33
15 10 17 11 6 14 12 5 15 17 11 15 10 12 17 10 13 8 13 13 9 10 12 17 21 27 32 31 23 31 34 42 43 39 44 41 42 36 43 32 50 24 27
25 22 18 14 21 11 12 13 6 17 16 12 8 18 13 7 12 9 3 20 17 8 21 24 32 30 31 30 29 34 33 27 33 36 42 51 41 27 39 34 38 39 23
26 26 20 18 16 11 16 15 17 14 21 14 18 26 13 11 14 21 11 16 7 14 21 35 43 42 37 26 29 36 34 35 32 39 46 36 24 23 25 28 20 23 29
25 22 20 22 25 13 15 9 18 23 20 13 2 8 21 25 21 15 22 23 23 29 37 32 44 48 47 30 32 37 42 37 25 24 17 24 33 35 31 25 33 26 37
21 20 22 24 27 25 33 24 24 27 30 31 29 26 18 26 20 19 26 47 56 60 59 50 34 48 55 49 31 28 21 14 41 35 16 20 25 25 30 34 46 35 31
17 19 18 18 21 27 40 39 33 36 34 34 37 44 46 53 33 42 55 51 58 59 53 54 49 40 47 44 33 28 34 37 36 34 38 27 28 23 11 12 19 28 34
28 29 35 29 26 35 34 43 47 45 44 45 43 46 46 54 44 51 50 47 47 54 53 45 50 49 45 48 41 32 35 31 29 33 45 33 24 20 22 24 29 32 33
43 46 28 39 40 36 47 45 50 46 49 50 51 54 60 58 47 40 31 39 45 47 51 53 52 56 52 55 55 40 35 26 31 31 30 29 24 21 30 32 34 36 34
Wind_Direction_850mb
172 146 145 151 160 164 170 158 152 146 141 129 124 121 107 97 94 93 90 86 82 76 71 69 64 61 60 60 62 62 61 62 64 62 61 61 64 68 69 67 59 66 69
157 161 144 150 160 155 162 162 157 151 148 141 134 129 117 105 97 96 91 85 81 76 69 65 61 58 56 56 56 59 61 64 62 59 55 51 53 59 65 70 67 66 65
132 146 137 144 152 161 164 163 162 159 151 149 142 143 136 122 109 104 98 92 87 78 70 61 55 53 51 50 50 53 61 65 60 62 63 27 26 45 55 60 62 64 64
113 138 137 138 147 160 173 169 167 172 161 161 158 154 152 148 134 120 104 90 79 70 57 46 42 38 39 38 37 45 58 73 70 59 81 103 340 19 37 48 56 54 60
130 161 146 152 155 162 177 176 174 182 180 170 174 173 173 173 168 145 136 123 78 56 29 12 8 6 8 10 14 21 40 77 92 57 40 137 310 331 7 28 45 48 47
160 176 159 170 166 168 172 184 186 190 193 190 194 196 193 193 190 196 218 255 285 305 310 312 319 328 333 338 341 347 1 21 15 33 2 252 302 304 334 353 16 30 38
128 109 225 187 180 178 178 182 192 199 204 208 208 208 208 208 210 223 248 271 282 289 293 292 294 299 303 309 314 320 323 322 322 86 36 245 290 309 312 323 340 355 10
119 235 165 176 181 189 182 186 193 204 210 217 220 217 215 222 233 250 262 275 282 286 289 287 287 287 291 294 298 302 305 307 304 270 174 277 280 295 303 311 312 315 328
149 193 146 161 167 177 179 183 191 198 208 216 219 219 225 233 247 261 271 278 284 283 284 285 285 285 287 289 291 293 296 299 299 295 220 284 269 283 295 308 306 296 297
155 161 142 154 163 170 172 174 182 186 194 202 214 217 228 239 251 268 278 283 286 284 284 285 284 286 288 288 287 289 301 316 304 291 23 206 272 270 286 301 305 293 285
187 159 170 168 146 159 176 177 181 185 197 201 208 219 228 248 259 285 293 292 310 306 297 290 285 284 286 287 292 292 289 321 313 312 289 264 258 276 288 295 297 294 286
210 201 226 174 165 166 191 184 187 189 194 209 220 224 232 166 338 295 295 299 313 310 304 300 306 299 295 298 302 296 289 296 300 302 279 257 263 276 289 295 296 288 286
275 300 32 158 183 167 181 210 181 115 51 36 196 277 201 261 258 255 272 289 296 296 310 302 288 291 282 272 279 295 287 290 276 279 297 306 309 308 305 306 300 284 282
302 268 154 207 187 201 209 165 216 189 167 225 230 233 230 227 276 244 267 277 302 300 307 282 310 323 289 308 294 314 273 274 275 275 283 294 292 303 305 301 316 294 281
120 36 46 155 180 192 132 167 177 190 162 209 230 226 217 211 229 240 250 265 263 284 313 331 326 339 289 319 347 316 279 275 288 279 286 284 270 282 302 295 306 307 293
90 314 264 54 223 246 213 202 219 194 197 194 205 232 221 220 243 230 246 281 287 267 267 283 309 307 313 318 316 291 295 295 277 303 287 278 281 289 296 279 298 295 293
30 126 331 345 293 192 301 242 122 237 211 210 237 239 241 247 259 222 222 238 246 266 293 321 307 313 320 292 286 300 303 288 300 280 296 282 284 294 287 287 300 299 294
24 9 359 22 355 296 221 165 199 223 202 214 238 263 245 274 256 233 227 246 280 291 282 280 282 288 294 311 302 300 301 301 312 311 305 285 286 276 277 298 298 282 298
37 11 22 16 296 316 320 226 232 238 188 229 210 251 259 227 257 171 292 296 325 326 321 291 322 324 319 316 314 318 305 297 291 290 287 285 283 290 314 299 298 281 306
35 34 21 4 337 336 328 313 255 270 248 242 237 242 266 196 293 229 147 316 310 337 300 312 321 327 323 326 315 303 299 298 302 297 302 295 300 292 294 293 299 294 293
35 31 33 18 355 22 346 303 306 282 272 257 241 249 242 234 233 273 257 238 290 308 299 322 320 323 320 328 313 313 303 304 289 300 289 286 275 276 287 285 301 282 286
19 18 358 355 338 325 304 291 325 305 287 302 232 248 258 298 291 276 263 278 297 305 303 305 304 306 304 316 302 296 304 303 296 303 334 267 292 288 281 325 333 321 301
4 358 350 352 346 355 330 320 293 278 273 281 274 272 248 235 228 253 292 301 300 303 301 295 290 296 299 297 297 293 302 298 311 283 302 341 312 318 295 273 312 317 316
326 322 336 335 340 336 327 323 321 315 308 302 295 293 281 290 293 288 287 278 294 295 291 281 267 280 285 277 290 272 268 278 284 302 302 323 322 327 314 317 324 315 315
306 307 308 305 315 313 298 310 306 300 295 284 277 274 280 278 285 283 277 286 284 280 277 278 275 264 265 268 274 277 275 269 270 279 290 301 311 296 288 299 316 324 325
310 311 314 323 316 309 313 309 302 297 299 297 293 288 282 289 292 285 279 279 273 279 269 262 264 264 260 265 271 251 251 259 275 282 298 301 303 307 290 299 315 317 329